Regional Weather Roundup
Issued by NWS Kansas City/Pleasant Hill, MO

Home | Current Version | Previous Version | Text Only | Print | Product List | Glossary On
Versions: 1 2 3 4 5 6 7 8 9 10 11 12 13 14 15 16 17 18 19 20 21 22 23 24 25 26 27
000
ASUS43 KEAX 281810
RWREAX

WEATHER ROUNDUP FOR EASTERN KANSAS AND NORTHWEST MISSOURI
NATIONAL WEATHER SERVICE KANSAS CITY/PLEASANT HILL MO
100 PM CDT WED SEP 28 2016

KSZ040-057-103>105-MOZ028-029-037-043-281900-
...KANSAS CITY METROPOLITAN AREA...

CITY           SKY/WX    TMP DP  RH WIND       PRES   REMARKS
K.C. INTL      MOSUNNY   64  47  53 N15G22    30.11S
6HR MIN TEMP:  52; 6HR MAX TEMP:  64;

K.C. DOWNTOWN  MOSUNNY   66  47  50 N10       30.10R
6HR MIN TEMP:  57; 6HR MAX TEMP:  67;

LEES SUMMIT    SUNNY     64  48  56 N13G24    30.10R
6HR MIN TEMP:  56; 6HR MAX TEMP:  64;

OLATHE - IXD   SUNNY     65  47  52 N18G26    30.11R
6HR MIN TEMP:  55; 6HR MAX TEMP:  65;

OLATHE - OJC   SUNNY     64  44  48 N18G25    30.10R
6HR MIN TEMP:  58; 6HR MAX TEMP:  65;

LAWRENCE       SUNNY     67  48  50 N13       30.12R

$$

MOZ001>008-011>017-020>025-030>033-038>040-044>046-053-054-281900-
...NORTHERN AND CENTRAL MISSOURI...

CITY           SKY/WX    TMP DP  RH WIND       PRES   REMARKS
ST. JOSEPH     MOSUNNY   64  46  52 N14G22    30.14R
6HR MIN TEMP:  49; 6HR MAX TEMP:  64;

MOSBY          PTCLDY    63  45  51 N15       30.11R
WHITEMAN AFB   MOSUNNY   66  48  52 N13G22    30.06R
6HR MIN TEMP:  55; 6HR MAX TEMP:  66;

CLINTON        SUNNY     66  48  52 N13G23    30.06R
SEDALIA        SUNNY     68  46  45 N15G25    30.07R
6HR MIN TEMP:  56; 6HR MAX TEMP:  68;

WARSAW         NOT AVBL
CHILLICOTHE      N/A     63  46  54 N12G20    30.11R
6HR MIN TEMP:  53; 6HR MAX TEMP:  64;

KIRKSVILLE     CLOUDY    61  46  57 N14G22    30.09R
6HR MIN TEMP:  51; 6HR MAX TEMP:  62;


$$

MOZ041-047>049-056>058-063>065-088>090-097-281900-
...EASTERN AND SOUTHERN MISSOURI...

CITY           SKY/WX    TMP DP  RH WIND       PRES   REMARKS
ST. LOUIS INTL MOSUNNY   67  45  45 N18G25    29.97R
6HR MIN TEMP:  62; 6HR MAX TEMP:  69;

SPIRIT OF STL  PTSUNNY   65  47  52 NW13G21   29.98R
COLUMBIA       SUNNY     66  45  46 NE16G23   30.04R
JEFFERSON CITY SUNNY     66  45  46 N10G16    30.02R
ROLLA          SUNNY     65  46  50 NW14      30.00R
OSAGE BEACH    MOSUNNY   66  47  50 N9G18     30.03R
SPRINGFIELD    SUNNY     75  38  26 N16       30.00R
BRANSON        SUNNY     77  50  38 NW14G21   29.99R
JOPLIN         SUNNY     73  44  35 N13       30.04R
WEST PLAINS    SUNNY     75  47  36 N13G23    29.98R

$$

IAZ060-094-KSZ022-034>040-054-083-096-NEZ052-066-093-281900-
...KANSAS...SOUTHEAST NEBRASKA AND IOWA...

CITY           SKY/WX    TMP DP  RH WIND       PRES   REMARKS
TOPEKA         SUNNY     65  48  54 N10G22    30.13R
6HR MIN TEMP:  56; 6HR MAX TEMP:  65;

MANHATTAN      SUNNY     67  47  48 N14G24    30.15R
EMPORIA        SUNNY     70  45  40 N12G20    30.11R
CHANUTE        LGT RAIN  73  43  33 N14       30.07S
WICHITA        SUNNY     75  44  33 N14G25    30.13R
OMAHA          MOSUNNY   61  45  55 N17G23    30.20R
LINCOLN        SUNNY     65  45  48 N13G20    30.21S
FALLS CITY     SUNNY     64  48  56 N13G22    30.15R
LAMONI         MOSUNNY   61  48  62 N15       30.12R
DES MOINES     CLOUDY    58  47  66 NW15      30.13R

$$





USA.gov is the U.S. government's official web portal to all federal, state and local government web resources and services.